DB0LS-15 Weather Reports


time (UTC)temp
C
wind
direction
speed
KPH
gust
KPH
rain 1hr
cm
rain 24hr
cm
rain mn
cm
humidity
%
barometer
mb
20260507191518 7 44 3.2 6.4 0.00 1.32 1.32 98 999.4
20260507190615 7 53 3.2 11.3 0.00 1.32 1.32 98 999.2
20260507185611 7 18 4.8 9.7 0.00 1.32 1.32 98 999.3
20260507184607 7 33 3.2 6.4 0.00 1.32 1.32 98 999.0
20260507183603 7 26 6.4 12.9 0.00 1.32 1.32 98 998.8
20260507182559 7 41 4.8 11.3 0.00 1.32 1.32 98 998.9
20260507181555 7 26 4.8 11.3 0.00 1.32 1.32 98 998.8
20260507180552 7 43 3.2 6.4 0.00 1.32 1.32 98 998.7
20260507175548 7 34 4.8 9.7 0.00 1.32 1.32 98 998.6
20260507174544 7 53 3.2 9.7 0.00 1.32 1.32 97 998.5
20260507173540 7 34 3.2 6.4 0.00 1.32 1.32 97 998.3
20260507172536 7 52 3.2 6.4 0.00 1.32 1.32 97 998.3
20260507171533 7 45 6.4 11.3 0.00 1.32 1.32 97 998.2
20260507170529 7 44 3.2 9.7 0.00 1.32 1.32 97 998.2
20260507165525 7 49 4.8 9.7 0.00 1.32 1.32 97 998.0
20260507164521 7 38 4.8 9.7 0.00 1.32 1.32 97 998.1
20260507163517 7 36 6.4 11.3 0.00 1.32 1.32 97 998.0
20260507162613 7 23 8.0 12.9 0.00 1.32 1.32 97 997.9
20260507161610 7 53 8.0 12.9 0.00 1.32 1.32 96 997.9
20260507160606 7 47 4.8 9.7 0.00 1.32 1.32 96 997.9
20260507155602 7 34 8.0 17.7 0.00 1.32 1.32 97 997.8
20260507154558 7 45 6.4 11.3 0.00 1.32 1.32 97 997.8
20260507153554 7 48 8.0 12.9 0.00 1.32 1.32 97 997.7
20260507152550 7 57 4.8 12.9 0.00 1.32 1.32 97 997.8
20260507151547 7 31 4.8 9.7 0.03 1.32 1.32 97 997.7
20260507150543 7 26 6.4 11.3 0.03 1.32 1.32 97 997.5
20260507145539 7 34 8.0 12.9 0.03 1.32 1.32 97 997.6
20260507144535 8 56 6.4 9.7 0.03 1.32 1.32 97 997.4
20260507143531 8 57 4.8 12.9 0.03 1.32 1.32 97 997.4
20260507142527 8 41 8.0 12.9 0.03 1.32 1.32 97 997.4
20260507141524 8 34 6.4 12.9 0.03 1.30 1.30 97 997.4
20260507140520 8 37 4.8 11.3 0.05 1.30 1.30 97 997.2
20260507135516 7 31 9.7 14.5 0.13 1.30 1.30 97 997.2
20260507134612 8 32 6.4 14.5 0.18 1.30 1.30 97 997.1
20260507133609 7 33 6.4 11.3 0.20 1.30 1.30 97 997.1
20260507132605 8 19 4.8 9.7 0.20 1.30 1.30 97 997.0
20260507131601 7 27 4.8 11.3 0.18 1.27 1.27 97 997.0
20260507130557 7 46 6.4 9.7 0.15 1.22 1.22 96 996.8
20260507125553 7 21 4.8 12.9 0.10 1.17 1.17 96 996.7
20260507124550 8 31 4.8 11.3 0.03 1.12 1.12 96 996.6
20260507123546 8 40 4.8 11.3 0.00 1.09 1.09 95 996.6
20260507122542 7 34 8.0 11.3 0.00 1.09 1.09 95 996.4
20260507121538 7 23 8.0 14.5 0.00 1.09 1.09 96 996.3
20260507120534 7 51 4.8 11.3 0.00 1.09 1.09 96 996.2
20260507115530 7 57 8.0 12.9 0.00 1.09 1.09 96 996.2
20260507114526 8 49 3.2 6.4 0.00 1.09 1.09 96 996.1
20260507113523 7 43 4.8 11.3 0.00 1.09 1.09 96 996.0
20260507112519 8 48 6.4 9.7 0.00 1.09 1.09 96 995.8
20260507111515 7 53 6.4 17.7 0.00 1.09 1.09 96 995.7
20260507110612 7 65 9.7 14.5 0.00 1.09 1.09 96 995.7
20260507105608 7 51 6.4 11.3 0.00 1.09 1.09 96 995.7
20260507104604 7 57 6.4 14.5 0.03 1.09 1.09 97 995.6
20260507103600 7 53 11.3 17.7 0.03 1.09 1.09 97 995.5
20260507102557 7 29 8.0 17.7 0.05 1.09 1.09 98 995.4
20260507101553 7 54 11.3 20.9 0.05 1.09 1.09 98 995.3
20260507100549 7 45 8.0 14.5 0.05 1.09 1.09 98 995.3
20260507095545 7 52 6.4 14.5 0.10 1.09 1.09 99 995.4
20260507094541 7 61 9.7 17.7 0.13 1.04 1.04 99 995.2
20260507093538 7 45 6.4 12.9 0.20 1.04 1.04 99 995.1
20260507092534 7 41 4.8 9.7 0.20 1.02 1.02 99 995.0
20260507091530 7 43 6.4 11.3 0.20 1.02 1.02 99 995.0
20260507090526 7 57 9.7 12.9 0.23 1.02 1.02 99 994.6
20260507085522 7 43 4.8 6.4 0.23 0.99 0.99 99 994.7
20260507084518 7 36 6.4 11.3 0.20 0.94 0.94 99 994.4
20260507083615 7 43 6.4 12.9 0.13 0.84 0.84 99 994.4
20260507082611 7 41 4.8 6.4 0.13 0.81 0.81 99 994.4
20260507081607 7 54 6.4 11.3 0.15 0.81 0.81 99 994.2
20260507080603 7 40 8.0 12.9 0.13 0.79 0.79 99 994.0
20260507075559 7 41 6.4 14.5 0.13 0.76 0.76 99 994.0
20260507074556 7 47 6.4 14.5 0.13 0.71 0.71 99 993.7
20260507073552 7 52 8.0 17.7 0.15 0.71 0.71 99 993.7
20260507072548 7 32 8.0 17.7 0.15 0.69 0.69 99 993.7
20260507071544 6 45 9.7 17.7 0.13 0.66 0.66 99 993.6
20260507070540 7 44 4.8 9.7 0.13 0.66 0.66 99 993.4
20260507065537 7 53 4.8 9.7 0.10 0.64 0.64 99 993.4
20260507064533 7 38 4.8 9.7 0.05 0.61 0.61 99 993.3
20260507063529 6 46 8.0 17.7 0.03 0.56 0.56 99 993.1
20260507062525 7 39 4.8 11.3 0.00 0.53 0.53 99 992.9
20260507061521 6 47 6.4 14.5 0.00 0.53 0.53 99 992.9
20260507060517 6 48 8.0 14.5 0.00 0.53 0.53 99 992.8
20260507055614 7 56 6.4 12.9 0.00 0.53 0.53 99 992.6
20260507054610 6 26 9.7 12.9 0.00 0.53 0.53 99 992.5
20260507053606 6 50 8.0 14.5 0.00 0.53 0.53 99 992.4
20260507052602 6 40 6.4 12.9 0.00 0.53 0.53 99 992.4
20260507051558 7 36 8.0 11.3 0.03 0.53 0.53 99 992.3
20260507050554 7 44 6.4 11.3 0.03 0.53 0.53 99 992.3
20260507045551 7 38 6.4 12.9 0.03 0.53 0.53 99 992.2
20260507044547 7 45 8.0 14.5 0.03 0.53 0.53 98 992.2
20260507043543 7 34 8.0 14.5 0.03 0.53 0.53 98 992.0
20260507042540 7 52 6.4 11.3 0.03 0.53 0.53 98 991.9
20260507041536 7 29 4.8 11.3 0.00 0.51 0.51 98 991.9
20260507040532 7 47 4.8 9.7 0.00 0.51 0.51 98 991.8
20260507035528 7 35 4.8 11.3 0.00 0.51 0.51 98 991.6
20260507034524 7 39 1.6 6.4 0.00 0.51 0.51 98 991.5
20260507033520 7 31 3.2 9.7 0.00 0.51 0.51 98 991.4
20260507032517 7 49 4.8 9.7 0.00 0.51 0.51 98 991.3
20260507031613 7 42 1.6 6.4 0.00 0.51 0.51 98 991.3
20260507030609 7 43 6.4 11.3 0.00 0.51 0.51 98 991.2
20260507025605 7 37 4.8 9.7 0.00 0.51 0.51 98 991.2
20260507024601 7 36 3.2 9.7 0.00 0.51 0.51 98 991.0
20260507023558 7 30 3.2 6.4 0.00 0.51 0.51 98 991.0
20260507022554 7 34 4.8 6.4 0.00 0.51 0.51 98 990.9
20260507021550 7 32 4.8 11.3 0.00 0.51 0.51 98 990.8
20260507020546 8 57 4.8 11.3 0.03 0.51 0.51 98 990.7
20260507015542 8 38 6.4 12.9 0.03 0.51 0.51 98 990.5
20260507014539 8 48 6.4 11.3 0.05 0.51 0.51 98 990.5
20260507013535 8 73 4.8 9.7 0.13 0.51 0.51 98 990.4
20260507012531 8 36 8.0 14.5 0.18 0.51 0.51 98 990.1
20260507011527 8 47 11.3 22.5 0.20 0.51 0.51 98 990.0
20260507010523 8 52 12.9 17.7 0.20 0.48 0.48 98 989.9
20260507005519 8 36 11.3 17.7 0.23 0.48 0.48 97 990.1
20260507004516 8 57 8.0 17.7 0.28 0.46 0.46 97 990.3
20260507003612 8 41 4.8 9.7 0.23 0.38 0.38 97 990.2
20260507002608 8 47 8.0 12.9 0.20 0.33 0.33 97 990.0
20260507001604 8 56 9.7 17.7 0.20 0.30 0.30 97 989.9
20260507000601 8 90 6.4 9.7 0.23 0.33 0.28 97 990.2
20260506235557 8 59 6.4 14.5 0.23 0.30 0.23 96 990.2
20260506234553 9 62 4.8 9.7 0.18 0.28 0.18 96 990.3
20260506233549 9 63 4.8 6.4 0.15 0.28 0.15 95 990.3
20260506232545 9 52 6.4 11.3 0.13 0.23 0.13 95 990.3
20260506231541 9 54 4.8 9.7 0.10 0.23 0.10 94 990.2
20260506230537 9 37 3.2 6.4 0.03 0.20 0.03 93 990.3
20260506225533 10 44 3.2 9.7 0.00 0.30 0.00 92 990.3
20260506224600 10 37 4.8 11.3 0.00 1.02 0.00 92 990.2
20260506223556 10 39 4.8 6.4 0.00 1.17 0.00 92 990.1
20260506222552 10 29 3.2 6.4 0.00 1.35 0.00 92 990.0
20260506221548 10 41 1.6 6.4 0.00 1.50 0.00 92 990.0
20260506220544 10 68 6.4 11.3 0.00 1.55 0.00 93 989.6
20260506215541 10 45 6.4 12.9 0.00 1.80 1.80 92 989.7
20260506214536 10 47 3.2 9.7 0.00 1.98 1.80 92 989.7
20260506213533 10 44 9.7 17.7 0.00 1.98 1.80 92 989.6
20260506212529 10 63 8.0 14.5 0.00 1.98 1.80 92 989.4
20260506211525 10 38 8.0 17.7 0.00 1.98 1.80 92 989.3
20260506210521 10 50 6.4 11.3 0.00 1.98 1.80 92 989.1
20260506205517 11 53 6.4 11.3 0.00 1.98 1.80 92 989.2
20260506204614 11 43 4.8 11.3 0.00 1.98 1.80 92 989.1
20260506203610 11 40 4.8 9.7 0.00 1.98 1.80 93 989.2
20260506202607 11 42 8.0 11.3 0.00 1.98 1.80 93 989.0
20260506201603 11 51 9.7 20.9 0.00 1.98 1.80 93 988.8
20260506200559 11 41 8.0 14.5 0.00 1.98 1.80 93 988.7
20260506195555 11 23 6.4 14.5 0.00 1.98 1.80 93 988.6
20260506194552 11 21 8.0 12.9 0.00 1.98 1.80 93 988.6
20260506193548 11 41 8.0 14.5 0.00 1.98 1.80 93 988.5
20260506192544 11 37 4.8 9.7 0.00 1.98 1.80 92 988.3